Regional Weather Roundup
Issued by NWS

Home | Current Version | Previous Version | Text Only | Print | Product List | Glossary On
Versions: 1 2 3 4 5 6 7 8 9 10 11 12 13 14 15 16 17 18 19 20 21 22 23 24 25 26 27 28 29 30 31 32 33 34 35 36 37 38 39 40 41 42 43 44 45 46 47 48 49 50
000
ASUS42 KTBW 291116
RWRFL
FLORIDA REGIONAL WEATHER ROUNDUP
NATIONAL WEATHER SERVICE TAMPA BAY RUSKIN FL
700 AM EDT THU SEP 29 2016

NOTE: "FAIR" INDICATES FEW OR NO CLOUDS BELOW 12,000 FEET WITH NO
SIGNIFICANT WEATHER AND/OR OBSTRUCTIONS TO VISIBILITY.

FLZ001>010-012>015-112-114-115-291200-
PANHANDLE FLORIDA

CITY           SKY/WX    TMP DP  RH WIND       PRES   REMARKS
PENSACOLA      CLEAR     69  63  81 NW5       29.98R
MILTON NAS     CLEAR     65  65 100 W5        29.99R
CRESTVIEW      CLEAR     66  64  93 CALM      29.99R FOG
DUKE FIELD     FAIR      67  65  91 CALM      29.97R
VALPARAISO     PTCLDY    70  65  84 W5        29.97R
MARY ESTHER    CLEAR     69  66  89 N5        29.96R
TRI COUNTY     FAIR      69  67  93 CALM      29.98R
PANAMA CITY    FAIR      70  68  93 CALM      29.96R
TYNDALL AFB    PTCLDY    77  67  72 NW9       29.97R
APALACHICOLA   PTCLDY    75  75 100 NW3       29.96R

STATION/POSITION SKY/WX   TEMP    WIND        PRES    WAVE   SWELL
                          AIR SEA DIR/SP/G            HT/PER HT/PER
                          (F)     (DEG/KT/KT) (MB)    (FT/S) (FT/S)
30.1N   87.6W              80 85  330/ 14/ 16 1015.1R   2/ 3
29.2N   88.2W              83 85  320/ 14/ 16 1015.0R
28.8N   86.0W              83 85              1015.1    2/ 4   2/ 4
PANAMA CITY BEAC           77 85  330/  7/ 10 1014.9R
TOWER C                    82     280/ 11/ 12 1015.4R
28.5N   84.5W              82 84  240/ 12/ 14 1015.3R   2/ 5

$$
FLZ011-016>038-118-127-128-134-139-239-291200-
NORTH FLORIDA

CITY           SKY/WX    TMP DP  RH WIND       PRES   REMARKS
MARIANNA       PTCLDY    71  70  96 W5        29.96R
TALLAHASSEE    PTCLDY    73  71  93 CALM      29.96R
PERRY          CLEAR     72  71  97 CALM      29.98R
CROSS CITY     LGT RAIN  73  72  94 CALM      29.99R
LAKE CITY      MOCLDY    70  70 100 CALM      29.99R
GAINESVILLE    CLEAR     69  67  93 CALM      30.00R
WILLISTON      CLEAR     72  72 100 CALM      30.00R
PALATKA        CLOUDY    70  70 100 SW5       30.01R
MAYPORT NAS    PTCLDY    72  69  90 S8        29.98R
JACKSONVILLE   PTCLDY    71  71 100 CALM      29.97R
JAX NAS        PTCLDY    76  70  82 S6        29.99R
FERNANDINA BEA FAIR      77  73  88 SW10      29.97R
ST AUGUSTINE   CLEAR     72  68  87 SW7       30.00R
PALM COAST     CLEAR    N/A N/A N/A CALM      30.01R

STATION/POSITION SKY/WX   TEMP    WIND        PRES    WAVE   SWELL
                          AIR SEA DIR/SP/G            HT/PER HT/PER
                          (F)     (DEG/KT/KT) (MB)    (FT/S) (FT/S)
SHELL POINT                77     290/  4/  6 1013.0
KEATON BEACH               76     120/  2/  2 1014.7R
CEDAR KEY                  82     250/  8/ 13 1015.2R
FERNANDINA                 76 83  180/  3/  6 1014.5R
30.7N   81.3W                 82                N/A     2/12   2/12
MAYPORT                    74 84  200/  5/  8 1015.1R
31.4N   80.9W              78 82  220/ 16/ 17 1013.7R   3/ 4   2/11
ST AUGUSTINE               72 83  230/  6/  9 1016.6R

$$
FLZ040-043>046-052-053-057-058-063-144-291200-
INTERIOR CENTRAL FLORIDA

CITY           SKY/WX    TMP DP  RH WIND       PRES   REMARKS
OCALA          CLEAR     70  66  88 CALM      30.00S
THE VILLAGES     N/A     72  72 100 CALM      29.91S
LEESBURG       LGT RAIN  74  72  93 S5        30.01R
SANFORD        CLEAR     74  71  91 S3        30.01R
ORLANDO EXEC   CLEAR     74  72  93 SW3       30.01R
ORLANDO INTL   PTCLDY    73  71  93 CALM      30.02R
KISSIMMEE      CLEAR     73  72  96 CALM      30.03R
WINTER HAVEN   CLEAR     73  69  87 SW3       30.03R
LAKELAND       CLEAR     72  72 100 CALM      30.03R
BARTOW         FAIR      70 N/A N/A CALM      30.03R
OKEECHOBEE     CLEAR     72  72 100 S3        30.04R

$$
FLZ041-047-054-059-064-141-147-291200-
EAST CENTRAL FLORIDA

CITY           SKY/WX    TMP DP  RH WIND       PRES   REMARKS
ORMOND BEACH   CLEAR     72  72 100 CALM      30.00
DAYTONA BEACH  PTCLDY    72  70  93 S3        30.01R
DELAND         CLEAR     72  70  94 S3        30.00S
NEW SMYRNA BEA PTCLDY    72  72 100 CALM      30.01
JFK SPACE CTR  CLEAR     73  72  94 SW2       30.00R FOG
TITUSVILLE     CLEAR     72  72 100 CALM      30.02
CAPE CANAVERAL CLEAR     72  70  94 S2        30.00R
MELBOURNE      CLEAR     73  73 100 SE5       30.02R
VERO BEACH     LGT RAIN  74  72  93 S7        30.03R
FT PIERCE      CLEAR     72  71  97 CALM      30.03R
STUART         PTCLDY    77  75  94 VRB5      30.04S

STATION/POSITION SKY/WX   TEMP    WIND        PRES    WAVE   SWELL
                          AIR SEA DIR/SP/G            HT/PER HT/PER
                          (F)     (DEG/KT/KT) (MB)    (FT/S) (FT/S)
28.5N   80.2W              80 84  240/ 10/ 12 1016.1R
TRIDENT PIER               76 85  210/  4/  5 1016.3R
28.4N   80.5W                 85                N/A     2/11   2/11
27.5N   80.2W                 85                N/A     2/11   2/11

$$
FLZ050-056-061-142-242-148-248-149-249-151-251-155-255-
160-260-291200-
WEST CENTRAL FLORIDA

CITY           SKY/WX    TMP DP  RH WIND       PRES   REMARKS
CRYSTAL RIVER  FAIR      72  70  94 CALM      30.00R
INVERNESS      FAIR      70  70 100 CALM      30.01R
BROOKSVILLE    CLEAR     71  71 100 MISG      30.02R
CLEARWATER AIR FAIR      73  73 100 CALM      30.01R
ST PETE CLEARW MOCLDY    76  75  97 S5        30.01R
TAMPA INTL     MOCLDY    78  72  81 S6        30.02R
TAMPA EXEC     PTCLDY    72  70  94 CALM      30.02R
PLANT CITY     CLEAR     73  72  94 CALM      30.04R
MACDILL AFB    CLOUDY    78  78 100 CALM      30.01R
PETER O KNIGHT CLOUDY    79  75  89 S5        30.02R
ST PETERSBURG  CLOUDY    79  76  90 SW6       29.99R
SARASOTA       CLOUDY    76  71  85 SE5       30.00R
VENICE         FAIR      77  75  94 E5        30.02R

STATION/POSITION SKY/WX   TEMP    WIND        PRES    WAVE   SWELL
                          AIR SEA DIR/SP/G            HT/PER HT/PER
                          (F)     (DEG/KT/KT) (MB)    (FT/S) (FT/S)
27.3N   84.2W                 86                N/A     2/ 4
CLEARWATER BEACH           79 86  140/  6/  7 1015.4R
MIDDLE TAMPA BAY                  170/  9/ 10 1015.9R
VENICE                     83 87  240/  9/ 10 1016.0R

$$
FLZ066-069-070-075>078-162-262-165-265-291200-
SOUTHWEST FLORIDA AND KEYS

CITY           SKY/WX    TMP DP  RH WIND       PRES   REMARKS
PUNTA GORDA    PTCLDY    74  72  93 SE3       30.03R
FT MYERS       CLOUDY    76  74  93 CALM      30.02R
SOUTHWEST INTL CLOUDY    76  73  91 SE3       30.02R
NAPLES         CLOUDY    78  76  93 CALM      30.02S
MARATHON       PTCLDY    77  74  90 CALM      30.04R
KEY WEST NAS   MOCLDY    79  74  84 CALM      30.04R
KEY WEST INTL  CLOUDY    81  78  91 CALM      30.04R

STATION/POSITION SKY/WX   TEMP    WIND        PRES    WAVE   SWELL
                          AIR SEA DIR/SP/G            HT/PER HT/PER
                          (F)     (DEG/KT/KT) (MB)    (FT/S) (FT/S)
NAPLES                        87              1016.4R
26.0N   85.6W              83 85  230/  8/ 10 1016.7R   1/ 4
DRY TORTUGAS               83     210/  6/  7 1017.3R
SAND KEY                   83     230/  3/  4 1017.7R
LONG KEY                   82 85  190/  2/  2 1016.9F

$$
FLZ067-068-071>074-168-172>174-291200-
SOUTHEAST FLORIDA

CITY           SKY/WX    TMP DP  RH WIND       PRES   REMARKS
W PALM BEACH   PTCLDY    76  74  93 SW3       30.04R
FT LAUDER-EXEC MOCLDY    76  74  93 CALM      30.04R
FT LAUDERDALE  PTCLDY    78  74  87 W3        30.03R
POMPANO BEACH  PTCLDY    77  75  93 CALM      30.04R
PEMBROKE PINES PTCLDY    76  73  91 CALM      30.05R
OPA LOCKA      PTCLDY    76  73  91 CALM      30.04R
MIAMI          MOCLDY    77  75  93 CALM      30.04R
WEST KENDALL   PTCLDY    72  72 100 CALM      30.04R
HOMESTEAD      PTCLDY    75  74  97 E1        30.04R

STATION/POSITION SKY/WX   TEMP    WIND        PRES    WAVE   SWELL
                          AIR SEA DIR/SP/G            HT/PER HT/PER
                          (F)     (DEG/KT/KT) (MB)    (FT/S) (FT/S)
PORT EVERGLADES            79     220/  3/  5 1016.7R
VIRGINIA KEY               82 88  260/  5/  6 1017.2R
LAKE WORTH                        220/  3/  4   N/A
FOWEY ROCKS                81 84  200/  4/  4 1018.0R
SETTLEMENT POINT           83     220/  6/  7 1017.6F

$$




USA.gov is the U.S. government's official web portal to all federal, state and local government web resources and services.